This is the latest recevied weather packets stored in our database for station/object KK4KTV-13. If no packets are shown the sender has not sent any weather packets the latest 10 day(s).
| Time | Temp. | Humidity | Pressure | Rain* | Wind** | Luminosity | Snow |
|---|---|---|---|---|---|---|---|
| 1777764820 | 12.22° C | 55% | 1015.8 hPa | 0 mm | - | 49 W/m² | - |
| 1777764518 | 12.22° C | 55% | 1015.7 hPa | 0 mm | - | 45 W/m² | - |
| 1777764214 | 12.78° C | 53% | 1015.7 hPa | 0 mm | - | 48 W/m² | - |
| 1777763910 | 12.78° C | 53% | 1015.7 hPa | 0 mm | - | 60 W/m² | - |
| 1777763608 | 13.33° C | 51% | 1015.5 hPa | 0 mm | - | 61 W/m² | - |
| 1777763306 | 13.33° C | 51% | 1015.6 hPa | 0 mm | - | 107 W/m² | - |
| 1777763004 | 13.33° C | 50% | 1015.5 hPa | 0 mm | - | 117 W/m² | - |
| 1777762700 | 13.33° C | 50% | 1015.5 hPa | 0 mm | - | 112 W/m² | - |
| 1777762397 | 13.33° C | 50% | 1015.6 hPa | 0 mm | - | 118 W/m² | - |
| 1777762093 | 13.89° C | 49% | 1015.4 hPa | 0 mm | - | 128 W/m² | - |
| 1777761790 | 13.33° C | 48% | 1015.6 hPa | 0 mm | - | 145 W/m² | - |
| 1777761488 | 13.33° C | 48% | 1015.5 hPa | 0 mm | - | 159 W/m² | - |
| 1777761186 | 13.89° C | 48% | 1015.5 hPa | 0 mm | - | 168 W/m² | - |
| 1777760882 | 13.33° C | 48% | 1015.5 hPa | 0 mm | - | 179 W/m² | - |
| 1777760574 | 13.33° C | 50% | 1015.4 hPa | 0 mm | - | 196 W/m² | - |
| 1777760270 | 13.89° C | 49% | 1015.3 hPa | 0 mm | - | 212 W/m² | - |
| 1777759967 | 13.33° C | 51% | 1015.4 hPa | 0 mm | - | 224 W/m² | - |
| 1777759663 | 13.33° C | 52% | 1015.6 hPa | 0 mm | - | 245 W/m² | - |
| 1777759359 | 13.89° C | 52% | 1015.6 hPa | 0 mm | - | 102 W/m² | - |
| 1777759056 | 13.33° C | 52% | 1015.6 hPa | 0 mm | - | 295 W/m² | - |
| 1777758754 | 13.33° C | 51% | 1015.4 hPa | 0 mm | - | 312 W/m² | - |
| 1777758451 | 13.33° C | 52% | 1015.5 hPa | 0 mm | - | 297 W/m² | - |
| 1777758147 | 13.33° C | 52% | 1015.6 hPa | 0 mm | - | 311 W/m² | - |
| 1777757845 | 13.33° C | 52% | 1015.4 hPa | 0 mm | - | 308 W/m² | - |
| 1777757542 | 12.78° C | 52% | 1015.5 hPa | 0 mm | - | 348 W/m² | - |
* Rain latest hour (hover to see other rain measurements)
** Current wind speed in m/s (hover to see current wind gust speed)